Tracking 29892 objects as of 21-Nov-2024
HD Live streaming from Space Station
objects crossing your sky now

STARLINK-5801

Track STARLINK-5801 now!
10-day predictions
STARLINK-5801 is classified as:


NORAD ID: 56005
Int'l Code: 2023-042V
Perigee: 565.1 km
Apogee: 567.3 km
Inclination: 43.0 °
Period: 95.8 minutes
Semi major axis: 6937 km
RCS: Unknown
Launch date: March 24, 2022
Source: United States (US)
Launch site: AIR FORCE EASTERN TEST RANGE (AFETR)
Your satellite tracking list
Your tracking list is empty




NASA's NSSDC Master Catalog

Two Line Element Set (TLE):
1 56005U 23042V   24325.84153122 -.00002973  00000-0 -20509-3 0  9991
2 56005  43.0036 110.6685 0001533 260.9618  99.1051 15.02542404 91636
Source of the keplerian elements: AFSPC